| time (UTC) | temp C | wind direction | speed KPH | gust KPH | rain 1hr cm | rain 24hr cm | rain mn cm | humidity % | barometer mb |
| 20260506155120 | 13 | 197 | 8.0 | 0.0 | 0.00 | 0.03 | 0.00 | 70 | 1009.5 |
| 20260506145505 | 12 | 191 | 11.3 | 0.0 | 0.00 | 0.03 | 0.00 | 76 | 1010.3 |
| 20260506135852 | 13 | 165 | 9.7 | 0.0 | 0.05 | 0.08 | 0.00 | 68 | 1010.3 |
| 20260506125935 | 12 | 166 | 8.0 | 0.0 | 0.00 | 0.15 | 0.00 | 77 | 1010.3 |
| 20260506120434 | 12 | 166 | 8.0 | 0.0 | 0.00 | 0.15 | 0.00 | 77 | 1010.3 |
| 20260506111408 | 11 | 167 | 8.0 | 0.0 | 0.00 | 0.15 | 0.00 | 84 | 1010.9 |
| 20260506102243 | 10 | 183 | 4.8 | 0.0 | 0.00 | 0.18 | 0.00 | 89 | 1010.7 |
| 20260506092858 | 10 | 208 | 4.8 | 0.0 | 0.05 | 0.18 | 0.00 | 88 | 1010.2 |
| 20260506083700 | 10 | 274 | 8.0 | 0.0 | 0.05 | 0.20 | 0.00 | 90 | 1009.7 |
| 20260506060541 | 10 | 339 | 4.8 | 0.0 | 0.03 | 0.15 | 0.00 | 92 | 1009.2 |
| 20260506042328 | 10 | 321 | 3.2 | 0.0 | 0.10 | 0.25 | 0.00 | 95 | 1008.7 |
| 20260506032448 | 10 | 39 | 1.6 | 0.0 | 0.08 | 0.33 | 0.00 | 96 | 1008.7 |
| 20260506022653 | 10 | 310 | 4.8 | 0.0 | 0.03 | 0.36 | 0.00 | 97 | 1008.9 |
| 20260506013433 | 10 | 164 | 6.4 | 0.0 | 0.03 | 0.38 | 0.00 | 97 | 1009.4 |
| 20260506003713 | 10 | 143 | 6.4 | 0.0 | 0.03 | 0.20 | 0.00 | 97 | 1009.6 |
| 20260505234558 | 10 | 157 | 6.4 | 0.0 | 0.00 | 0.15 | 0.00 | 97 | 1010.1 |
| 20260505224648 | 10 | 173 | 9.7 | 0.0 | 0.00 | 0.13 | 0.00 | 96 | 1010.6 |
| 20260505215343 | 10 | 144 | 8.0 | 0.0 | 0.00 | 0.10 | 0.00 | 96 | 1010.9 |
| 20260505205759 | 11 | 118 | 4.8 | 0.0 | 0.00 | 0.05 | 0.00 | 92 | 1010.4 |
| 20260505195923 | 11 | 205 | 9.7 | 0.0 | 0.00 | 0.03 | 0.00 | 90 | 1010.3 |
| 20260505190956 | 12 | 202 | 9.7 | 0.0 | 0.00 | 0.05 | 0.00 | 88 | 1009.8 |
| 20260505181335 | 13 | 179 | 8.0 | 0.0 | 0.00 | 0.03 | 0.00 | 81 | 1009.2 |
| 20260505172424 | 15 | 175 | 4.8 | 0.0 | 0.00 | 0.03 | 0.00 | 74 | 1008.3 |